Location: Luz Observatory
(34.5000°N, 117.2833°W)
Time: 06:51:20
(UTC-07:00)

Hubble Space Telescope - Visible Passes

Search period start: 04 August 2015 00:00
Search period end: 14 August 2015 00:00
Orbit: 541 x 545 km, 28.5° (Epoch: 03 August)

Date Brightness Start Highest point End Pass type
(mag) Time Alt. Az. Time Alt. Az. Time Alt. Az.
04 Aug 2.0 20:49:07 10° SW 20:52:31 25° SSE 20:54:02 20° SE visible
05 Aug 1.8 20:40:01 10° SW 20:43:35 28° S 20:45:50 18° ESE visible
05 Aug 3.3 22:20:44 10° WSW 22:21:17 13° WSW 22:21:17 13° WSW visible
06 Aug 1.7 20:30:58 10° SW 20:34:39 31° S 20:37:30 15° ESE visible
06 Aug 3.0 22:11:49 10° WSW 22:12:57 17° WSW 22:12:57 17° WSW visible
07 Aug 1.7 20:21:57 10° WSW 20:25:43 33° S 20:29:06 12° ESE visible
07 Aug 2.8 22:02:57 10° WSW 22:04:32 20° WSW 22:04:32 20° WSW visible
08 Aug 1.6 20:12:59 10° WSW 20:16:47 35° S 20:20:35 10° ESE visible
08 Aug 2.6 21:54:07 10° WSW 21:56:04 22° SW 21:56:04 22° SW visible
09 Aug 2.5 21:45:18 10° WSW 21:47:34 22° SW 21:47:34 22° SW visible
10 Aug 2.5 21:36:32 10° WSW 21:39:02 21° SSW 21:39:02 21° SSW visible
11 Aug 2.6 21:27:50 10° WSW 21:30:31 19° SSW 21:30:31 19° SSW visible
12 Aug 2.8 21:19:15 10° WSW 21:21:53 16° SSW 21:21:59 16° SSW visible
13 Aug 3.0 21:10:53 10° SW 21:12:53 13° SSW 21:13:30 13° SSW visible
